CZ-2D DEB

Satellite information

Favourite Embed

Satellite Type and Status

DEBRISIN ORBIT

Key statistics

Satellite CZ-2D DEB at a glance.

Uptime

4303

Days in orbit

Revolutions

≈ 14.5

Per day

Orbit

SSO

Sun Synchronous Orbit

Inclination

97.9

Latest

Satellite identification and parameters

Extended collection of information and parameters for CZ-2D DEB.

Object identification

Identified? True

Debris? True

Object name: CZ-2D DEB

International designator: 2013-068B

Object number (NORAD): 43413

Object ID (CCSDS): 43413

Country: PEOPLES REPUBLIC OF CHINA (PRC)

Current information (Y/N): Y

RCS size: SMALL

Orbital parameters

Period: 99.321 minutes

Inclination: 97.9302 deg

SMA: 7104.311 km

Apoapsis: 805.259 km

Periapsis: 647.093 km

RAAN: 25.6865 deg

Eccentricy: 0.01113166

Argument of periapsis: 118.6218 deg

Mean anomaly: 242.6228 deg

Mean motion: 14.49839182 rev/day

Mean motion (dot): 0.0000885 rev/day2

B* drag term: 0.002126393 1/REarth

Two-line elements (TLE)

Creation date: Sept. 2, 2025, 11:42 p.m.

Reference frame: TEME

Reference center: EARTH

Epoch: Sept. 2, 2025, 8:23 a.m. UTC

TLE line 0: 0 CZ-2D DEB

TLE line 1: 1 43413U 13068B 25245.34945955 .00008850 00000-0 21264-2 0 9993

TLE line 2: 2 43413 97.9302 25.6865 0111317 118.6218 242.6228 14.49839182610349

Live tracking on map

Real-time ground track for satellite CZ-2D DEB.

In-orbit conjunctions

A list of the most updated potential collisions computed for object CZ-2D DEB.

Target Orbit TCA Probability of collision Miss distance Type
SCOUT X-4 R/B LEO 2025-08-15 17:13:59 0.0002449254 305.0 (m) ROCKET BODY
CZ-4 DEB SSO 2025-08-06 01:41:51 0.000238252 108.0 (m) DEBRIS
ARIANE 1 DEB SSO 2025-06-12 12:07:25 0.0002079312 111.0 (m) DEBRIS
REX LEO 2024-11-11 23:34:21 0.0001261115 504.0 (m) PAYLOAD
NOAA 17 DEB SSO 2024-11-08 23:34:20 0.0001763068 821.0 (m) DEBRIS

Associated space launch

CZ-2D DEB was lifted into orbit during the mission ‘Long March 2D | Shiyan Weixing 5’, on board a Long March 2D space rocket.

The launch took place on Nov. 25, 2013, 2:12 a.m. from Launch Area 4 (SLS-2 / 603).

For more information about the launch, click the button.

Launch to space Long March 2D | Shiyan Weixing 5
Long March 2D | Shiyan Weixing 5

Agency: N/A

Status: Launch Successful

Launch date: Nov. 25, 2013, 2:12 a.m. UTC

Rocket: Long March 2D

Launch pad: Launch Area 4 (SLS-2 / 603)

Location: Jiuquan Satellite Launch Center, People's Republic of China

...

Latest news about this satellite

There are no fresh news available about this satellite. Check back as we update our databases every day.


Newsletter sign-up

Weekly statistics, charts and insights to help you stay on top of the space industry.